Regional Weather Roundup
Issued by NWS

Home | Current Version | Previous Version | Text Only | Print | Product List | Glossary Off
Versions: 1 2 3 4 5 6 7 8 9 10 11 12 13 14 15 16 17 18 19 20 21 22 23 24 25 26 27 28 29 30 31 32 33 34 35 36 37 38 39 40 41 42 43 44 45 46 47 48 49 50

000
ASUS43 KDTX 011110
RWRMI
MICHIGAN HOURLY REGIONAL WEATHER ROUNDUP
NATIONAL WEATHER SERVICE DETROIT/PONTIAC MI
700 AM EDT MON SEP 01 2014

NOTE: "FAIR" INDICATES FEW OR NO CLOUDS BELOW 12,000 FEET WITH NO
SIGNIFICANT WEATHER AND/OR OBSTRUCTION TO VISIBILITY.

MIZ047>049-052>055-059>063-066>070-074>076-081>083-011200-
SOUTHEAST LOWER MICHIGAN

CITY           SKY/WX    TMP DP  RH WIND       PRES   REMARKS
ADRIAN         CLOUDY    69  68  96 SW7       29.94R FOG
ALMA           CLEAR     65  65  97 S5        29.87S FOG
BAD AXE        FOG       61  61 100 CALM      29.90F VSB 1/4
DETROIT CITY   PTCLDY    74  68  81 S6        29.92F
DETROIT        PTCLDY    69  68  96 S3        29.92F FOG
FLINT          CLEAR     70  66  87 S5        29.91R FOG
GROSSE ILE     PTCLDY    72  70  94 S5        29.91F
HILLSDALE      CLOUDY    71  71 100 SW6       29.93R FOG
HOWELL         CLEAR     67  67  99 S3        29.92R FOG

CITY           SKY/WX    TMP DP  RH WIND       PRES   REMARKS
JACKSON        CLEAR     69  67  93 S6        29.91S
LAMBERTVILLE   CLEAR     70  68  94 S5        29.93S FOG
LANSING        CLOUDY    69  68  96 S7        29.89R FOG
LAPEER         NOT AVBL
MASON          MOCLDY    66  65  97 S6        29.90S FOG
MONROE         CLEAR     72  68  88 S5        29.90F
MT. CLEMENS    CLEAR     69  67  93 S6        29.91S
PONTIAC        MOCLDY    68  66  93 CALM      29.91F FOG
PORT HOPE        N/A     67  64  90 SW5       29.87S
PORT HURON     FOG       70  70 100 S5        29.92S VSB 1/4
TRI CITIES     PTCLDY    67  64  90 S6        29.89R
YPSILANTI      CLEAR     72  67  84 S7        29.92F HAZE
$$
MIZ043>046-050>051-056>058-064>065-071>073-077>080-011200-
SOUTHWEST LOWER MICHIGAN

CITY           SKY/WX    TMP DP  RH WIND       PRES   REMARKS
BATTLE CREEK   PTCLDY    70  68  93 S10       29.89S FOG
BENTON HARBOR  PTCLDY    70  69  97 SE8       29.83F
BIG RAPIDS     MOCLDY    63  63 100 SE5       29.84S FOG
COLDWATER      PTCLDY    72  70  95 S3        29.91S FOG
HOLLAND        CLEAR     71  69  93 S8        29.84F
GRAND RAPIDS   PTCLDY    70  70 100 S8        29.86S FOG
KALAMAZOO      CLOUDY    71  69  93 S12       29.88F FOG
MARSHALL       PTCLDY    69  68  98 S3        29.89S FOG
MUSKEGON       PTCLDY    73  69  87 S12       29.81F
$$
MIZ016>042-011200-
NORTHERN LOWER MICHIGAN

CITY           SKY/WX    TMP DP  RH WIND       PRES   REMARKS
ALPENA         FOG       62  62 100 S6        29.86F VSB 1/4
BEAVER ISLAND  PTCLDY    67  64  91 S9        29.76F
BELLAIRE       PTCLDY    67  63  87 CALM      29.79F
CADILLAC       MOCLDY    66  66  98 SW7       29.83F
CHARLEVOIX     PTCLDY    65  64  97 SE6       29.81F
FRANKFORT      MOSUNNY   71  66  84 SE7       29.77S
GAYLORD        MOCLDY    62  61  96 S8        29.84F
GRAYLING       MOCLDY    59  59 100 CALM      29.86S FOG
HARBOR SPRINGS MOCLDY    63  61  93 CALM      29.80S
HOUGHTON LAKE  MOCLDY    64  64 100 S7        29.86F
MANISTEE       MOCLDY    68  64  88 S3        29.80R
OSCODA         FOG       60  60 100 CALM      29.86S VSB 1/4
PELLSTON       CLOUDY    63  62  97 SE5       29.80F
TRAVERSE CITY  MOCLDY    68  63  84 S5        29.77F
$$
MIZ007>008-015-011200-
EASTERN UPPER MICHIGAN

CITY           SKY/WX    TMP DP  RH WIND       PRES   REMARKS
KINROSS        CLOUDY    63  63 100 SE13      29.81S
MACKINAC ISLAN PTCLDY    63  62  98 SE10G16   29.80S
NEWBERRY       PTCLDY    62  61  97 SE9       29.75F
S. S. MARIE    CLOUDY    62  60  93 SE9       29.81F
$$
MIZ004>006-011>014-085-011200-
CENTRAL UPPER MICHIGAN

CITY           SKY/WX    TMP DP  RH WIND       PRES   REMARKS
MANISTIQUE     CLOUDY    65  64  96 CALM      29.73F
ESCANABA       MOCLDY    68  64  88 S9        29.68F
MENOMINEE      PTCLDY    70  66  88 S9        29.68S
SAWYER-GWINN   CLOUDY    66  64  94 S13G21    29.67F FOG
$$
MIZ001>003-009>011-084-011200-
WESTERN UPPER MICHIGAN

CITY           SKY/WX    TMP DP  RH WIND       PRES   REMARKS
IRON MOUNTAIN  MOCLDY    68  65  90 S9        29.66F
HOUGHTON       CLOUDY    66  63  90 SE7       29.57S
COPPER HARBOR    N/A     65  62  90 SW9G18    29.57F
$$

ABBREVIATIONS USED IN REMARKS
   TC - TEMPERATURE IN CELSIUS
  WCI - WIND CHILL INDEX
   HX - HEAT INDEX
  VSB - VISIBILITY



USA.gov is the U.S. government's official web portal to all federal, state and local government web resources and services.